FENGYUN 1C DEB, 31187

Orbit data source: Space-Track

FENGYUN 1C DEB, 31187 is space debris in SSO originally from a launch on Mon, 10 May 1999 UTC launched from the Taiyaun Space Center, China (TSC). Fengyun 1C debris stems from the Chinese weather satellite Fengyun-1C, which was intentionally destroyed by a Chinese anti-satellite missile in 2007. This event dramatically increased the amount of space debris, with thousands of trackable fragments posing hazards to satellites and human spaceflight. The Fengyun 1C debris cloud has become a focal point in discussions about space sustainability and the need for international regulations to prevent the creation of new debris.

Loading next visibility...
Identifier
31187, 1999-025BJR
Orbit
SSO
Country
Flag of CNCN / PRC
Related business
Manufacturer
Unknown
Mission
Spacecraft
Bus & Motor
Unknown
Mass
Unknown
Launch date (UTC)
1999-05-10 (27 years ago)
Launch vehicle
Unknown
Launch site
Taiyaun Space Center, China (TSC)
Object type
Payload
Rocket body
Debris
Shape & HBR
Unknown shape, 0.1 m
Radar Cross Section
Small (<0.1 m²)

Expand to show TLE details & history
Last TLE update: 3 days ago

TLE from 3 days ago
0 FENGYUN 1C DEB
1 31187U 99025BJR 26035.87696769  .00025351  00000-0  36452-2 0  9997
2 31187  99.2430 270.5822 0217244  59.8852 302.3686 14.61503925698908
Epoch: 2026-02-04T21:02Z
TLE epoch observation values (Epoch: 2026-02-04T21:02:50.008Z)
Latitude
0.00001°
Longitude
179.83658°
Altitude
611.494 km
Speed
7.596 km/s
True Right ascension
18h 02m 19s
True Declination
0° 00' 00"
Sunlit
Object was in daylight at epoch
Visualization orbit readout
Latitude
Unknown
Longitude
Unknown
Altitude
Unknown
Speed
Unknown
Apparent Right ascension
Unknown
Apparent Declination
Unknown
Sunlit
N/A
Visualization observer readout
Local Sidereal Time
11:49:31
Azimuth
Unknown
Elevation
Unknown
Doppler factor
Unknown
Orbital elements
Apogee altitude
838.902 km
Perigee altitude
531.998 km
Semi-major axis
7,063.587 km
Eccentricity
0.02172
Inclination
99.243°
RAAN
270.5822°
Arg. of periapsis
59.8852°
True anomaly
300.23546°
Mean anomaly
302.3686°
Eccentric anomaly
301.3051°
Mean motion
3.65599 °/min
Orbital period
98.47 mins
BSTAR
0.0036452
Loading maneuver chart data...
Computing Atmospheric mass density...

Documentation

Showing up to 5 results
|